Dewpoint
25 26 28 31 29 30 29 29 25 29 29 29 28 28 28 25 23 21 20 19 18 18 23 25 35 36 36 37 37 38 38 37 36 34 33 34 34 35 35 35 32 32 31 32
24 29 31 30 31 33 34 32 30 29 31 33 31 30 28 25 21 21 20 18 19 20 23 26 33 34 35 37 36 37 38 38 37 34 35 36 37 37 35 36 35 33 31 32
27 29 28 23 30 32 34 33 29 28 30 31 32 29 26 23 21 21 19 19 20 22 25 26 27 34 33 35 36 36 37 38 37 36 37 36 36 34 33 33 34 33 32 33
28 30 16 27 32 30 28 27 28 27 29 29 34 33 26 22 21 21 21 23 25 26 27 27 28 27 32 35 34 35 37 37 36 36 37 36 35 34 33 33 34 34 33 34
24 24 24 26 27 28 28 26 27 31 35 35 38 36 28 22 23 25 25 27 29 30 29 30 31 31 30 33 33 35 36 37 35 35 37 36 35 33 34 31 32 34 34 32
26 23 22 27 26 29 32 29 35 35 33 31 32 25 23 26 28 32 36 36 36 36 37 37 37 33 31 32 34 35 37 38 36 36 36 36 35 34 33 31 31 32 33 32
26 25 27 28 27 32 29 32 35 35 33 31 25 24 26 35 38 37 37 37 37 37 37 38 38 38 37 34 35 36 37 37 37 37 36 36 37 35 34 32 32 31 31 32
29 23 23 30 30 32 35 37 36 34 30 28 28 30 38 37 36 36 36 36 36 37 38 38 38 38 37 36 37 35 35 36 36 37 37 37 36 36 34 33 31 30 30 29
32 32 34 36 35 38 37 34 36 30 30 34 38 38 36 35 36 36 36 36 37 37 37 36 37 37 36 37 38 36 35 34 36 36 36 36 36 35 34 32 30 30 30 29
30 31 34 35 34 34 34 33 30 32 37 37 36 34 35 35 35 35 35 35 34 34 33 33 35 36 37 37 38 36 35 35 34 35 33 34 35 36 34 32 30 30 30 29
32 31 34 36 37 34 34 33 35 34 34 32 33 33 33 33 33 33 34 33 32 32 31 31 32 34 36 37 37 34 35 35 34 34 34 34 35 35 34 34 32 30 30 30
30 34 34 35 35 35 34 35 35 31 31 31 31 31 32 32 33 33 33 33 32 31 31 32 32 32 34 36 35 35 33 35 34 34 33 33 33 33 35 35 34 33 33 32
36 35 36 37 37 36 35 32 28 28 30 30 32 33 34 34 34 33 33 32 31 31 31 30 31 32 33 35 35 34 33 34 35 34 33 32 32 31 30 31 33 33 32 32
36 36 36 37 36 36 31 27 28 31 33 34 34 34 31 30 31 31 30 30 31 31 30 30 30 31 33 34 35 35 35 34 34 34 34 33 33 32 31 30 29 30 32 32
37 37 38 39 37 30 27 28 32 32 33 33 31 30 30 29 29 29 31 30 30 30 30 30 30 31 32 34 33 33 34 34 34 34 33 33 33 32 32 32 31 31 31 32
38 38 37 36 29 27 31 32 32 32 32 31 30 30 31 30 28 29 29 30 29 29 29 29 32 31 31 32 32 32 33 33 33 34 33 32 32 32 31 31 31 30 30 30
37 36 36 31 29 32 32 31 30 29 29 30 31 33 32 30 29 28 28 29 29 29 29 29 31 31 30 31 31 30 31 31 31 31 32 32 32 31 31 31 30 30 30 31
38 37 32 32 33 32 30 30 29 29 29 30 31 33 32 30 29 28 29 30 30 30 30 30 30 31 30 31 29 29 30 29 29 30 29 29 30 31 31 30 30 30 30 31
36 31 32 34 34 31 30 30 30 30 30 33 33 31 29 28 30 29 29 30 30 30 30 31 31 30 29 30 31 30 29 28 28 27 28 28 27 28 28 29 29 29 30 30
33 33 35 34 30 30 30 29 30 30 32 32 34 33 30 26 27 30 30 30 31 31 30 30 30 31 31 31 30 29 29 27 27 28 28 27 27 27 26 27 27 27 28 28
33 35 33 29 29 30 29 28 28 31 32 32 30 29 32 29 28 28 30 31 31 30 29 30 29 30 30 30 29 29 28 27 27 27 27 27 27 25 27 26 26 27 27 27
35 34 30 29 28 27 27 27 30 31 30 29 29 29 28 30 30 30 30 32 31 29 29 29 29 30 30 29 29 29 28 27 27 27 27 27 26 27 27 26 26 27 27 27
35 32 29 29 29 27 28 29 31 31 31 30 31 29 28 30 30 29 29 32 31 30 30 30 31 31 31 32 31 30 29 28 28 28 28 28 27 27 27 27 26 27 27 27
35 30 29 31 29 28 27 28 29 30 30 29 29 29 31 30 31 33 31 31 31 31 32 32 32 33 34 34 33 33 32 30 29 28 28 28 28 28 28 28 27 28 28 28
32 29 31 30 29 28 27 28 28 28 29 29 29 30 30 31 31 31 33 32 33 34 35 36 34 34 35 34 33 32 32 31 30 30 29 28 28 28 28 28 28 28 29 29
29 29 30 30 29 28 28 28 27 28 29 30 30 31 31 32 32 33 33 34 34 34 34 36 36 33 34 33 33 32 32 31 31 30 30 29 28 27 28 28 29 28 29 29
30 30 30 29 27 28 27 27 27 26 29 30 31 32 32 31 32 33 34 35 35 35 35 35 35 34 33 33 32 32 32 31 31 31 31 30 29 28 28 28 27 27 28 28
Wind_Speed
14 14 15 17 17 18 3 6 5 7 16 10 1 3 13 14 14 14 13 12 10 9 7 7 11 7 6 5 7 9 11 13 15 10 7 8 12 14 16 12 14 16 15 16
8 13 15 13 19 21 13 13 17 20 12 8 11 11 16 16 15 13 12 10 10 8 7 8 6 4 3 2 7 10 10 13 11 13 11 10 16 14 16 11 16 15 17 16
3 4 4 7 10 9 7 8 13 14 6 10 11 16 15 15 13 12 9 7 8 8 7 10 10 1 4 5 5 8 11 12 13 11 12 12 13 15 14 16 16 17 17 14
4 1 3 4 10 6 13 13 13 12 14 11 16 15 11 11 9 5 6 7 11 8 10 11 10 11 8 6 6 10 12 11 13 12 11 12 12 15 17 18 17 18 12 13
4 3 1 5 0 2 6 11 7 13 12 14 12 15 3 6 5 6 6 9 13 10 13 17 18 16 11 6 9 13 14 10 12 14 13 13 13 16 16 17 16 15 13 8
3 2 1 1 4 10 12 4 13 12 9 4 4 9 4 9 7 19 22 19 20 21 21 23 22 19 17 5 10 14 15 11 11 13 15 13 13 14 15 16 15 15 14 8
5 4 1 2 7 5 4 1 3 5 3 6 9 7 7 21 21 20 20 23 20 20 18 19 21 22 20 17 9 10 11 12 14 14 13 10 14 9 14 14 16 16 15 15
2 3 0 3 4 5 6 2 5 5 9 11 12 16 22 21 21 22 21 20 20 19 19 20 21 20 20 17 6 9 11 13 14 15 14 12 18 11 11 14 14 15 14 15
4 5 10 17 15 11 7 4 4 15 17 18 23 19 19 19 20 18 17 17 17 17 17 17 18 19 19 20 19 6 11 17 14 15 15 13 11 12 10 12 13 13 13 12
6 4 12 11 7 5 4 7 18 20 22 20 20 19 19 17 15 15 14 15 14 14 16 17 17 19 18 19 22 9 12 17 16 15 16 16 13 8 11 9 11 12 13 13
7 11 12 9 6 13 20 17 22 21 19 18 22 19 16 13 10 9 12 12 13 15 15 17 19 19 20 21 20 17 13 14 18 14 14 16 16 16 9 11 7 10 11 11
7 15 12 12 17 20 19 19 19 20 22 21 19 15 11 9 9 12 12 13 14 15 16 17 18 20 20 19 20 18 14 11 13 14 17 16 16 16 15 17 16 16 16 10
16 18 23 18 16 13 19 20 22 20 19 16 14 14 15 16 15 15 12 13 15 14 14 15 16 18 20 21 16 21 16 17 10 14 15 14 17 19 20 19 14 18 20 17
18 21 19 18 14 15 20 22 22 19 17 16 17 17 15 12 10 9 12 13 12 13 13 14 17 19 19 18 18 16 18 19 16 16 16 16 15 16 15 18 19 20 18 18
19 23 22 18 13 19 20 20 18 16 16 16 14 13 11 14 15 17 14 15 14 13 14 13 15 17 18 16 17 19 18 15 13 14 15 16 16 16 16 17 17 17 18 20
22 21 19 17 21 21 20 18 17 16 15 14 13 13 11 14 15 14 16 14 16 16 15 15 13 14 16 16 16 15 15 20 19 16 16 17 16 17 18 18 17 18 19 20
24 17 19 19 21 21 19 17 18 15 14 14 14 14 15 13 15 15 15 14 14 14 15 16 13 13 16 15 13 14 14 15 18 17 18 17 17 18 17 17 18 17 16 18
18 20 21 22 22 20 19 17 15 14 14 14 14 13 14 16 14 15 15 13 12 13 16 16 13 14 17 17 14 14 14 15 17 17 16 18 18 17 17 18 19 19 19 19
25 26 23 22 20 20 18 17 14 12 11 11 13 14 15 16 13 14 13 13 14 14 15 16 19 15 16 18 15 13 14 15 15 16 16 16 17 16 18 19 19 19 19 19
24 23 24 22 20 20 19 15 15 14 11 12 12 9 14 16 15 11 13 15 16 12 13 16 15 14 15 15 16 14 15 16 16 16 15 16 15 16 16 17 17 17 18 18
26 25 24 23 22 19 17 15 14 13 12 12 12 12 11 13 14 13 13 13 15 14 15 15 15 12 13 14 14 14 15 16 16 16 17 16 17 17 15 16 16 15 17 17
24 24 23 23 21 19 17 17 16 14 12 11 10 11 13 11 11 15 14 13 11 14 11 12 13 15 14 14 12 12 14 14 14 14 16 15 17 16 16 17 17 15 15 15
23 23 22 21 21 20 18 16 14 12 12 11 9 12 13 12 10 11 12 9 11 12 9 11 12 13 12 9 10 11 13 13 13 12 12 11 14 13 13 15 16 15 15 15
24 22 21 20 20 19 19 15 16 15 14 11 13 13 10 12 13 11 12 11 10 8 8 5 10 14 12 12 12 13 10 11 11 11 11 11 11 11 12 13 14 14 14 15
24 23 22 23 20 17 19 19 17 15 14 13 12 11 11 10 9 9 9 10 11 8 9 10 10 13 11 12 12 13 12 10 11 11 10 11 11 12 11 12 11 14 13 13
25 22 21 20 18 19 18 18 18 15 14 13 11 10 9 10 11 10 10 9 9 9 8 9 9 10 10 11 11 12 11 11 11 12 11 11 12 13 12 15 13 15 14 14
21 22 20 19 19 19 19 18 18 18 16 14 13 10 10 9 10 9 8 6 5 5 6 8 8 8 9 9 10 10 10 11 11 12 12 12 10 12 13 14 15 15 14 15
Wind_Direction
42 39 61 40 23 19 338 276 193 108 98 58 264 145 87 74 61 57 51 47 36 16 15 10 119 103 91 66 13 328 318 318 308 316 325 321 333 319 319 306 300 298 300 296
45 60 69 50 27 24 29 52 92 101 79 76 39 82 64 56 50 47 40 35 22 359 11 39 100 121 166 112 24 346 328 333 344 351 342 348 330 327 325 315 301 300 304 302
61 55 26 31 3 64 89 41 76 73 74 52 58 64 63 60 48 41 27 4 8 1 35 52 41 202 268 114 32 3 360 343 337 336 338 333 332 326 324 327 314 300 303 309
144 82 45 248 282 44 87 65 63 52 46 31 80 55 48 72 58 5 315 42 15 10 61 50 35 17 81 106 44 17 6 346 338 335 325 320 337 328 331 334 318 318 308 306
116 65 223 297 20 75 78 67 62 69 46 10 116 67 12 104 87 8 59 52 23 48 56 36 24 12 64 87 43 21 354 344 344 331 327 336 345 334 343 342 338 331 311 314
168 126 116 231 51 44 89 61 53 74 59 15 118 53 34 68 56 47 48 39 31 51 38 27 12 10 19 59 40 19 348 347 344 340 340 345 336 343 346 347 337 331 339 321
83 95 202 101 82 45 41 231 45 44 16 342 73 89 72 63 54 55 46 37 37 40 37 22 13 13 4 14 34 16 4 4 356 345 337 345 327 347 352 346 340 344 355 348
100 108 246 89 73 87 135 88 52 350 56 81 67 56 65 59 51 44 38 31 29 31 28 18 11 7 357 0 357 26 14 21 360 351 347 350 354 343 357 353 350 349 352 354
112 127 87 82 112 118 100 71 1 68 46 67 74 66 58 56 49 42 36 31 31 30 24 19 12 6 360 350 348 15 16 25 4 356 353 338 352 359 345 357 356 352 352 352
106 107 104 93 75 113 149 66 72 66 77 66 71 68 64 58 51 43 39 38 30 27 23 11 9 12 6 355 351 25 31 24 9 3 357 345 340 345 1 342 352 350 356 0
120 131 101 87 68 75 69 74 77 72 66 69 80 70 68 63 62 58 66 43 30 30 25 17 8 6 7 5 4 17 43 27 16 360 354 349 350 355 2 4 329 347 347 351
179 162 132 106 80 85 80 77 84 81 72 69 78 86 84 74 59 67 69 53 41 31 27 19 14 8 5 9 12 13 21 15 17 15 15 4 353 355 6 4 9 11 9 8
128 127 102 102 90 90 89 85 76 77 84 85 72 71 67 56 56 55 55 64 55 39 30 23 20 14 4 2 16 23 18 11 5 5 6 4 12 13 5 5 12 14 9 8
125 113 99 101 101 101 96 91 88 81 74 69 66 62 65 64 58 64 64 71 68 50 39 28 27 20 6 0 13 20 26 23 13 6 7 3 3 1 3 10 8 8 8 8
104 103 104 117 119 98 94 92 88 83 76 72 78 79 67 57 52 46 47 65 50 44 30 27 28 28 12 7 17 20 20 13 16 14 10 8 10 10 12 11 11 9 5 15
121 120 121 114 103 99 94 94 90 79 75 71 60 52 66 79 66 57 44 67 49 39 20 15 46 26 21 16 21 21 18 19 17 16 13 12 12 14 13 13 13 13 15 11
116 127 120 106 101 95 96 89 87 89 83 68 54 49 42 43 74 61 47 54 51 50 27 23 48 33 25 21 23 24 16 19 19 20 18 14 15 16 12 12 13 12 11 5
128 112 111 109 109 109 102 102 108 104 98 92 72 63 49 36 81 66 56 42 36 37 34 25 38 33 30 19 28 30 23 26 26 21 17 16 13 13 14 14 13 12 9 7
119 117 114 114 116 112 110 109 103 101 91 117 96 83 65 49 81 76 62 48 32 29 31 33 23 32 31 25 23 31 30 26 26 24 19 17 18 16 16 14 12 10 7 8
122 118 118 120 117 119 117 107 96 82 83 80 82 94 82 63 57 76 65 48 38 63 43 31 32 28 26 21 25 33 31 32 26 24 18 18 15 16 18 12 10 7 6 6
127 126 126 125 124 121 117 113 110 98 87 82 76 62 104 94 81 68 55 48 34 62 53 37 37 29 32 27 33 30 31 30 27 25 20 16 15 19 12 13 14 9 4 4
135 133 132 130 130 127 124 123 116 111 104 94 90 81 73 82 98 79 59 62 52 59 52 44 38 40 41 39 32 30 31 28 25 21 20 14 15 8 5 9 7 3 2 3
141 139 139 138 137 135 135 133 131 123 103 91 103 104 91 78 72 67 55 52 80 71 68 51 42 39 32 37 36 34 34 30 27 18 14 8 11 6 1 0 3 355 356 354
144 145 141 137 136 137 135 131 121 119 114 103 90 83 100 88 72 88 85 83 114 85 57 30 21 20 15 16 20 16 40 36 34 18 17 11 9 359 354 354 356 348 350 353
151 145 141 146 149 152 144 141 141 138 133 125 113 105 96 87 103 87 91 76 67 59 35 12 22 25 21 24 26 22 21 28 24 6 10 8 5 353 347 348 343 345 343 343
152 153 153 155 154 152 154 149 149 153 140 128 118 111 95 87 88 94 80 79 70 53 32 8 16 28 26 25 22 22 17 9 6 3 359 358 1 357 342 345 343 345 336 333
148 148 156 151 151 160 163 165 160 155 149 144 137 135 126 114 115 99 94 86 70 47 29 5 8 19 23 21 18 16 10 3 356 358 356 355 350 342 341 339 343 342 334 332